Location: Bretagne
(43.8474°N, 0.4650°W)
Time: 07:15:09
(UTC+00:00)

Cosmos 1821 Rocket - Pass Details

Date: 15 January 2026
Orbit: 943 x 1004 km, 82.9° (Epoch: 10 February)

Event Time Altitude Azimuth Distance (km) Brightness Sun altitude
Rises 18:30:18 0° 349° (N) 3,676 7.0 -17.7°
Reaches altitude 10° 18:32:50 10° 347° (NNW) 2,716 6.3 -18.1°
Maximum altitude 18:38:59 67° 266° (W) 1,032 4.3 -19.2°
Drops below altitude 10° 18:45:00 10° 185° (S) 2,664 6.5 -20.3°
Sets 18:47:29 0° 183° (S) 3,600 7.1 -20.7°
